Location: Recife
(8.0585°S, 34.8848°W)
Time: 10:44:34
(UTC-03:00)

SR - Pass Details

Date: 16 April 2026
Orbit: 568 x 852 km, 66.7° (Epoch: 12 May)

Event Time Altitude Azimuth Distance (km) Brightness Sun altitude
Rises 12:43:18 0° 232° (SW) 2,768 ? 62.2°
Reaches altitude 10° 12:46:29 10° 258° (WSW) 1,870 ? 61.6°
Maximum altitude 12:48:35 14° 289° (WNW) 1,651 ? 61.2°
Drops below altitude 10° 12:50:43 10° 320° (NW) 1,890 ? 60.8°
Sets 12:54:00 0° 346° (NNW) 2,821 ? 60.1°
